Location: Cluny
(50.9333°N, 112.8167°W)
Time: 07:00:10
(UTC-06:00)

Amateur Radio Satellites - All Passes

Search period start: 28 August 2015 06:30
Search period end: 29 August 2015 06:30
Location: Cluny, 50.9333°N, 112.8167°W

Satellite Date Start Highest point End Downlink Frequencies (MHz)
Time Altitude Azimuth
PRISM 28 Aug 06:40:05 06:43:12 22° 62° (ENE) 06:46:24 437.425
YUBILEINY 28 Aug 06:49:25 06:54:16 16° 42° (NE) 06:59:29 435.215
PCSat 28 Aug 06:50:58 06:54:57 20° 338° (NNW) 06:58:54 145.827
SO-50 28 Aug 06:56:20 06:59:42 18° 351° (N) 07:03:04 436.795
O/OREOS (USA 219) 28 Aug 07:05:34 07:09:38 30° 253° (WSW) 07:13:37 437.305
CUTE-I 28 Aug 07:08:24 07:12:54 28° 92° (E) 07:17:28 437.470
HORYU 2 28 Aug 07:10:35 07:13:56 20° 300° (WNW) 07:17:10 437.375
AO-7 28 Aug 07:11:32 07:19:26 49° 302° (WNW) 07:27:15 29.400- 29.500
Cosmos 2499 28 Aug 07:12:50 07:20:57 44° 294° (WNW) 07:29:20 435.465 / 435.565
JAS-2 28 Aug 07:17:18 07:22:06 18° 315° (NW) 07:26:27 435.910
STRAND 1 28 Aug 07:23:09 07:28:14 74° 72° (ENE) 07:33:22 437.568
GONETS M04 28 Aug 07:27:50 07:32:53 16° 318° (NW) 07:37:36
CUBESAT XI-V 28 Aug 07:37:28 07:41:29 29° 267° (W) 07:45:29 437.345
BRITE-PL 28 Aug 07:43:18 07:46:03 14° 84° (E) 07:49:06 437.365/2234.400
Cubesat XI-IV 28 Aug 08:01:39 08:07:00 72° 103° (ESE) 08:12:20 437.490
AIST 1 28 Aug 08:09:42 08:10:31 11° 82° (E) 08:11:34
PRISM 28 Aug 08:14:25 08:18:24 47° 260° (W) 08:22:23 437.425
GOMX 1 28 Aug 08:32:28 08:36:38 23° 89° (E) 08:41:01 467.674
PCSat 28 Aug 08:37:29 08:40:28 15° 3° (N) 08:43:28 145.827
SO-50 28 Aug 08:38:19 08:41:57 20° 15° (NNE) 08:45:37 436.795
YUBILEINY 28 Aug 08:45:10 08:53:48 54° 70° (ENE) 09:02:25 435.215
VERMONT LUNAR 28 Aug 08:46:35 08:47:45 12° 183° (S) 08:48:54 437.305
CUTE-I 28 Aug 08:48:07 08:53:18 52° 292° (WNW) 08:58:26 437.470
AUBIESAT-1 28 Aug 08:57:43 08:59:59 14° 48° (NE) 09:02:23 437.475
M-CUBED/EXP-1 PRIME 28 Aug 08:58:23 09:01:10 16° 50° (NE) 09:04:02 437.505
HO-68 28 Aug 08:59:16 09:04:45 24° 88° (E) 09:10:26 435.675
STRAND 1 28 Aug 09:04:30 09:08:05 18° 272° (W) 09:11:31 437.568
SEEDS 28 Aug 09:04:41 09:06:28 13° 85° (E) 09:08:24 437.485
AO-7 28 Aug 09:05:22 09:10:28 18° 326° (NW) 09:15:19 29.400- 29.500
DOVE 4 28 Aug 09:05:59 09:10:28 28° 91° (E) 09:15:03 437.250
Cosmos 2504 28 Aug 09:07:42 09:12:16 15° 43° (NE) 09:17:08 435.465 / 435.565
Cosmos 2499 28 Aug 09:12:57 09:17:11 14° 322° (NW) 09:21:05 435.465 / 435.565
BRITE-PL 28 Aug 09:20:04 09:25:23 80° 102° (ESE) 09:31:01 437.365/2234.400
UNISAT 6 28 Aug 09:29:49 09:32:32 16° 56° (NE) 09:35:22 437.425
COMPASS 1 28 Aug 09:32:37 09:35:32 19° 90° (E) 09:38:33 437.405
Cosmos 2491 28 Aug 09:37:48 09:45:45 43° 87° (E) 09:53:49 435.465 / 435.565
Cubesat XI-IV 28 Aug 09:42:33 09:46:40 23° 303° (WNW) 09:50:40 437.490
AIST 1 28 Aug 09:43:15 09:47:30 88° 103° (ESE) 09:51:48
AAUSAT CUBESAT 2 28 Aug 09:46:16 09:49:29 22° 91° (E) 09:52:44 437.432
PHONESAT 2.4 28 Aug 09:49:32 09:51:11 13° 171° (S) 09:52:52 2401.200-2431.200
CUTE 1.7 + AOD 2 28 Aug 09:56:33 10:00:41 48° 99° (E) 10:04:47 437.475
TIGRISAT 28 Aug 09:58:46 10:02:32 25° 62° (ENE) 10:06:23 435.000
DUCHIFAT 1 28 Aug 10:00:35 10:01:16 10° 54° (NE) 10:02:07 145.980
CANX-2 28 Aug 10:09:51 10:14:07 72° 102° (ESE) 10:18:20 2200.000
GOMX 1 28 Aug 10:09:54 10:15:11 66° 288° (WNW) 10:20:38 467.674
QB50P2 28 Aug 10:10:43 10:12:50 14° 57° (ENE) 10:15:06 145.880/145.840
ANTELSAT 28 Aug 10:13:36 10:17:47 33° 65° (ENE) 10:22:02 437.575/2403.000
NANOSAT C BR1 28 Aug 10:14:51 10:17:04 14° 57° (ENE) 10:19:26 145.865
SO-50 28 Aug 10:18:49 10:23:38 47° 38° (NE) 10:28:24 436.795
CINEMA 3 28 Aug 10:21:04 10:26:03 56° 100° (E) 10:30:57 145.822/145.860
PCSat 28 Aug 10:21:26 10:25:50 24° 29° (NNE) 10:30:16 145.827
Oscar 11 28 Aug 10:22:38 10:26:10 24° 92° (E) 10:29:44 145.826/435.025
BUGSAT 1 28 Aug 10:25:27 10:26:38 11° 55° (NE) 10:27:58 437.445
QB50P1 28 Aug 10:26:03 10:28:54 18° 60° (ENE) 10:31:50 145.935-145.965
AUBIESAT-1 28 Aug 10:29:15 10:33:57 65° 66° (ENE) 10:38:35 437.475
M-CUBED/EXP-1 PRIME 28 Aug 10:30:28 10:35:17 76° 66° (ENE) 10:40:02 437.505
CUTE-I 28 Aug 10:30:32 10:32:20 11° 312° (NW) 10:33:55 437.470
DANDE 28 Aug 10:35:00 10:39:38 20° 56° (NE) 10:45:10 436.750
CUSAT 1 28 Aug 10:36:07 10:41:54 27° 60° (ENE) 10:48:35 437.405
SEEDS 28 Aug 10:38:40 10:42:54 81° 287° (WNW) 10:47:05 437.485
CUBEBUG 2 28 Aug 10:38:41 10:43:10 40° 96° (E) 10:47:34 437.445
DELFI C3 28 Aug 10:39:02 10:42:14 23° 92° (E) 10:45:27 145.870
HUMSAT D 28 Aug 10:41:09 10:42:07 11° 83° (E) 10:43:19 437.325/437.525
YUBILEINY 28 Aug 10:42:20 10:50:35 44° 273° (W) 10:58:40 435.215
DOVE 4 28 Aug 10:43:20 10:48:28 53° 290° (WNW) 10:53:38 437.250
HO-68 28 Aug 10:46:11 10:53:27 84° 290° (WNW) 11:00:40 435.675
UWE-3 28 Aug 10:54:08 10:58:37 44° 97° (E) 11:03:00 435.000/436.395/437.385
ZACube-1 28 Aug 10:56:28 11:00:41 36° 95° (E) 11:04:50 437.345
Cosmos 2504 28 Aug 10:58:43 11:07:06 52° 70° (ENE) 11:15:10 435.465 / 435.565
BRITE-PL 28 Aug 10:59:30 11:03:27 21° 300° (WNW) 11:07:25 437.365/2234.400
FUNcube-1 28 Aug 11:03:42 11:08:00 40° 96° (E) 11:12:14 145.935
UNISAT 6 28 Aug 11:03:58 11:08:40 88° 68° (ENE) 11:13:25 437.425
COMPASS 1 28 Aug 11:07:28 11:11:33 52° 289° (WNW) 11:15:35 437.405
AAUSAT CUBESAT 2 28 Aug 11:21:20 11:25:19 44° 290° (WNW) 11:29:14 437.432
POLYITAN 1 28 Aug 11:23:47 11:27:58 57° 71° (ENE) 11:32:13 437.675
AIST 1 28 Aug 11:23:55 11:25:55 13° 301° (WNW) 11:27:44
PHONESAT 2.4 28 Aug 11:26:28 11:28:16 14° 187° (S) 11:30:03 2401.200-2431.200
POPSAT HIP 1 28 Aug 11:27:59 11:32:11 61° 72° (ENE) 11:36:27 437.405
DUCHIFAT 1 28 Aug 11:32:05 11:36:17 65° 72° (ENE) 11:40:31 145.980
CUTE 1.7 + AOD 2 28 Aug 11:32:59 11:36:21 22° 297° (WNW) 11:39:36 437.475
Cosmos 2491 28 Aug 11:34:00 11:42:31 54° 290° (WNW) 11:51:02 435.465 / 435.565
TIGRISAT 28 Aug 11:34:25 11:39:00 52° 261° (W) 11:43:38 435.000
QB50P2 28 Aug 11:43:51 11:48:07 89° 99° (E) 11:52:27 145.880/145.840
DX 1 28 Aug 11:43:58 11:47:38 26° 94° (E) 11:51:21 434.975-435.025
50 SAT 28 Aug 11:46:08 11:49:02 20° 91° (E) 11:51:59 437.505
CANX-2 28 Aug 11:46:51 11:49:34 16° 301° (WNW) 11:52:10 2200.000
NANOSAT C BR1 28 Aug 11:48:04 11:52:19 87° 255° (WSW) 11:56:38 145.865
GOMX 1 28 Aug 11:49:42 11:52:29 14° 306° (NW) 11:55:09 467.674
AISAT 28 Aug 11:50:06 11:53:31 21° 91° (E) 11:57:01 437.250
ANTELSAT 28 Aug 11:50:08 11:54:30 37° 264° (W) 11:58:54 437.575/2403.000
BUGSAT 1 28 Aug 11:57:20 12:01:23 76° 74° (ENE) 12:05:32 437.445
Oscar 11 28 Aug 11:58:25 12:02:33 42° 291° (WNW) 12:06:37 145.826/435.025
CINEMA 3 28 Aug 11:58:45 12:02:55 26° 298° (WNW) 12:06:59 145.822/145.860
SO-50 28 Aug 11:59:32 12:04:10 39° 239° (WSW) 12:08:39 436.795
QB50P1 28 Aug 12:00:06 12:04:19 66° 258° (WSW) 12:08:36 145.935-145.965
UKube-1 28 Aug 12:02:42 12:06:41 35° 96° (E) 12:10:41 .
CUBEBUG 1 28 Aug 12:03:17 12:06:17 18° 89° (E) 12:09:23 437.445
PCSat 28 Aug 12:04:37 12:10:06 80° 51° (NE) 12:15:33 145.827
AUBIESAT-1 28 Aug 12:05:26 12:09:01 21° 264° (W) 12:12:29 437.475
M-CUBED/EXP-1 PRIME 28 Aug 12:07:12 12:10:32 18° 266° (W) 12:13:43 437.505
ISS 28 Aug 12:11:19 12:14:22 39° 153° (SSE) 12:17:26 145.825
DELFI C3 28 Aug 12:13:40 12:17:27 40° 291° (WNW) 12:21:11 145.870
HUMSAT D 28 Aug 12:14:19 12:18:39 85° 104° (ESE) 12:22:54 437.325/437.525
CUBEBUG 2 28 Aug 12:15:32 12:19:45 31° 296° (WNW) 12:23:50 437.445
SEEDS 28 Aug 12:16:16 12:18:02 12° 304° (WNW) 12:19:39 437.485
DANDE 28 Aug 12:17:01 12:23:45 73° 76° (ENE) 12:31:59 436.750
CUSAT 1 28 Aug 12:18:04 12:25:12 87° 259° (WSW) 12:33:27 437.405
VELOX 1 28 Aug 12:19:04 12:23:12 37° 97° (E) 12:27:23 145.980
DOVE 4 28 Aug 12:23:26 12:25:13 11° 309° (NW) 12:26:47 437.250
JAS-2 28 Aug 12:25:06 12:26:31 11° 34° (NNE) 12:28:13 435.910
UWE-3 28 Aug 12:30:57 12:34:57 28° 297° (WNW) 12:38:50 435.000/436.395/437.385
Oscar 19 28 Aug 12:31:06 12:34:50 21° 57° (ENE) 12:38:42 437.125/150
ZACube-1 28 Aug 12:32:54 12:36:59 32° 295° (WNW) 12:40:58 437.345
HO-68 28 Aug 12:34:46 12:40:21 24° 311° (NW) 12:45:46 435.675
FUNcube-1 28 Aug 12:40:14 12:44:11 29° 296° (WNW) 12:48:01 145.935
UNISAT 6 28 Aug 12:43:39 12:46:10 14° 275° (W) 12:48:31 437.425
Gurwin Techsat 1B 28 Aug 12:43:42 12:45:04 11° 48° (NE) 12:46:39 435.225
AO-7 28 Aug 12:45:43 12:48:47 13° 23° (NNE) 12:52:02 29.400- 29.500
Cosmos 2504 28 Aug 12:51:13 12:59:18 46° 273° (W) 13:06:58 435.465 / 435.565
ESTCUBE 1 28 Aug 12:58:10 13:02:40 68° 102° (ESE) 13:07:09 437.505/2401.250
POLYITAN 1 28 Aug 13:01:13 13:04:16 18° 271° (W) 13:07:13 437.675
POPSAT HIP 1 28 Aug 13:05:38 13:08:30 17° 271° (W) 13:11:16 437.405
DUCHIFAT 1 28 Aug 13:09:51 13:12:34 16° 272° (W) 13:15:10 145.980
DX 1 28 Aug 13:19:54 13:24:03 41° 293° (WNW) 13:28:10 434.975-435.025
50 SAT 28 Aug 13:20:03 13:23:47 43° 291° (WNW) 13:27:27 437.505
ITAMSAT 1 28 Aug 13:21:57 13:25:14 18° 55° (NE) 13:28:39 435.822/435.867
QB50P2 28 Aug 13:23:05 13:24:44 12° 275° (W) 13:26:11 145.880/145.840
AISAT 28 Aug 13:26:02 13:30:25 52° 290° (WNW) 13:34:46 437.250
NANOSAT C BR1 28 Aug 13:27:36 13:28:55 11° 276° (W) 13:30:01 145.865
GONETS M04 28 Aug 13:31:43 13:39:09 30° 58° (ENE) 13:46:46
TISAT 1 28 Aug 13:33:16 13:36:55 27° 94° (E) 13:40:36 437.305
BUGSAT 1 28 Aug 13:35:27 13:37:28 13° 274° (W) 13:39:19 437.445
Cosmos 2491 28 Aug 13:36:55 13:42:01 16° 317° (NW) 13:46:48 435.465 / 435.565
CUBEBUG 1 28 Aug 13:38:42 13:43:03 61° 289° (WNW) 13:47:24 437.445
UKube-1 28 Aug 13:38:55 13:42:46 31° 295° (WNW) 13:46:34 .
ISS 28 Aug 13:47:23 13:50:38 82° 349° (NNW) 13:53:55 145.825
PCSat 28 Aug 13:48:57 13:52:59 21° 251° (WSW) 13:56:51 145.827
SPROUT 28 Aug 13:49:16 13:53:36 63° 102° (ESE) 13:57:54 437.525
HUMSAT D 28 Aug 13:51:23 13:53:48 15° 302° (WNW) 13:56:04 437.325/437.525
VELOX 1 28 Aug 13:55:45 13:59:41 31° 296° (WNW) 14:03:35 145.980
DANDE 28 Aug 14:00:43 14:06:38 30° 271° (W) 14:13:19 436.750
CUSAT 1 28 Aug 14:01:38 14:07:12 23° 275° (W) 14:13:01 437.405
JAS-2 28 Aug 14:02:46 14:09:19 32° 56° (NE) 14:16:05 435.910
Oscar 19 28 Aug 14:08:30 14:13:41 76° 256° (WSW) 14:18:56 437.125/150
BEESAT 28 Aug 14:11:34 14:14:01 14° 86° (E) 14:16:39 436.000
Gurwin Techsat 1B 28 Aug 14:18:52 14:23:59 51° 68° (ENE) 14:29:08 435.225
AO-7 28 Aug 14:32:05 14:39:04 32° 49° (NE) 14:46:11 29.400- 29.500
ESTCUBE 1 28 Aug 14:35:56 14:39:07 19° 301° (WNW) 14:42:12 437.505/2401.250
SWISSCUBE 28 Aug 14:35:57 14:39:49 25° 92° (E) 14:43:46 437.505
ITAMSAT 1 28 Aug 14:58:55 15:04:07 88° 75° (ENE) 15:09:20 435.822/435.867
HORYU 2 28 Aug 15:01:38 15:04:28 17° 58° (ENE) 15:07:24 437.375
Cosmos 2499 28 Aug 15:04:27 15:12:00 31° 58° (ENE) 15:19:24 435.465 / 435.565
TISAT 1 28 Aug 15:08:48 15:12:47 38° 293° (WNW) 15:16:44 437.305
ITUPSAT 1 28 Aug 15:12:08 15:16:45 46° 99° (E) 15:21:20 437.325
CUBEBUG 1 28 Aug 15:17:52 15:18:36 10° 307° (NW) 15:19:09 437.445
ISS 28 Aug 15:23:51 15:27:07 89° 202° (SSW) 15:30:22 145.825
SPROUT 28 Aug 15:26:10 15:29:16 19° 300° (WNW) 15:32:16 437.525
GONETS M04 28 Aug 15:28:19 15:37:08 80° 263° (W) 15:45:57
JAS-2 28 Aug 15:46:02 15:53:45 79° 257° (WSW) 16:01:41 435.910
BEESAT 28 Aug 15:47:48 15:52:36 86° 286° (WNW) 15:57:22 436.000
Oscar 19 28 Aug 15:51:49 15:54:04 12° 277° (W) 15:56:04 437.125/150
Gurwin Techsat 1B 28 Aug 15:59:39 16:04:15 29° 268° (W) 16:08:48 435.225
RS-15 28 Aug 16:02:42 16:09:31 20° 99° (E) 16:17:05 29.354- 29.394
SWISSCUBE 28 Aug 16:13:21 16:17:57 49° 292° (WNW) 16:22:32 437.505
STARS 28 Aug 16:13:33 16:17:03 23° 91° (E) 16:20:38 437.465
KKS-1 28 Aug 16:22:15 16:26:33 42° 98° (E) 16:30:50 437.445
AO-7 28 Aug 16:22:48 16:31:12 84° 251° (WSW) 16:39:36 29.400- 29.500
HORYU 2 28 Aug 16:36:04 16:40:35 79° 256° (WSW) 16:45:07 437.375
ITAMSAT 1 28 Aug 16:41:16 16:44:25 16° 274° (W) 16:47:23 435.822/435.867
ITUPSAT 1 28 Aug 16:50:23 16:54:28 28° 298° (WNW) 16:58:29 437.325
BEESAT 3 28 Aug 16:50:32 16:54:15 35° 121° (ESE) 16:58:01 437.485
BEESAT 2 28 Aug 16:57:07 17:00:46 32° 120° (ESE) 17:04:29 435.950
Cosmos 2499 28 Aug 16:57:24 17:06:18 80° 262° (W) 17:14:38 435.465 / 435.565
CUTE-I 28 Aug 16:58:17 17:01:08 15° 52° (NE) 17:04:10 437.470
ISS 28 Aug 17:00:24 17:03:18 30° 211° (SSW) 17:06:11 145.825
AIST 2 28 Aug 17:10:39 17:12:00 12° 111° (ESE) 17:13:33 435.215
GONETS M04 28 Aug 17:26:36 17:32:45 21° 285° (WNW) 17:38:33
BEESAT 28 Aug 17:26:57 17:29:48 16° 305° (NW) 17:32:31 436.000
JAS-2 28 Aug 17:34:29 17:40:06 21° 279° (W) 17:45:31 435.910
MOZHAYETS 4 28 Aug 17:44:26 17:48:51 46° 98° (E) 17:53:15
STARS 28 Aug 17:49:27 17:53:47 49° 291° (WNW) 17:58:04 437.465
Cubesat XI-IV 28 Aug 17:49:44 17:54:26 34° 63° (ENE) 17:59:12 437.490
HO-68 28 Aug 17:52:49 17:53:48 10° 31° (NNE) 17:55:04 435.675
KKS-1 28 Aug 17:59:11 18:03:02 28° 297° (WNW) 18:06:49 437.445
RS-15 28 Aug 18:09:03 18:19:52 70° 123° (ESE) 18:31:15 29.354- 29.394
HORYU 2 28 Aug 18:16:48 18:18:05 11° 276° (W) 18:19:06 437.375
AO-7 28 Aug 18:19:04 18:25:23 22° 274° (W) 18:31:23 29.400- 29.500
BEESAT 3 28 Aug 18:28:18 18:32:10 39° 321° (NW) 18:36:02 437.485
BEESAT 2 28 Aug 18:34:48 18:38:44 42° 320° (NW) 18:42:41 435.950
CUTE-I 28 Aug 18:35:08 18:40:25 72° 72° (ENE) 18:45:45 437.470
AIST 2 28 Aug 18:45:40 18:49:54 75° 129° (SE) 18:54:10 435.215
Cosmos 2499 28 Aug 18:51:58 18:58:10 21° 285° (WNW) 19:03:51 435.465 / 435.565
BRITE-PL 28 Aug 18:59:25 19:02:48 22° 60° (ENE) 19:06:26 437.365/2234.400
MOZHAYETS 4 28 Aug 19:22:03 19:25:53 26° 297° (WNW) 19:29:36
CUTE 1.7 + AOD 2 28 Aug 19:22:17 19:23:01 10° 55° (NE) 19:23:56 437.475
CUBESAT XI-V 28 Aug 19:28:04 19:32:35 49° 99° (E) 19:37:06 437.345
Cubesat XI-IV 28 Aug 19:29:21 19:34:27 45° 262° (W) 19:39:34 437.490
STRAND 1 28 Aug 19:29:34 19:32:49 17° 87° (E) 19:36:13 437.568
HO-68 28 Aug 19:33:22 19:39:29 33° 55° (NE) 19:45:45 435.675
CANX-2 28 Aug 19:33:57 19:36:15 15° 58° (ENE) 19:38:40 2200.000
Cosmos 2491 28 Aug 19:41:01 19:48:21 30° 57° (ENE) 19:55:52 435.465 / 435.565
O/OREOS (USA 219) 28 Aug 19:44:50 19:47:41 17° 101° (ESE) 19:50:41 437.305
AIST 1 28 Aug 19:45:08 19:49:08 37° 72° (ENE) 19:53:11
GOMX 1 28 Aug 19:45:48 19:49:52 35° 65° (ENE) 19:54:17 467.674
PRISM 28 Aug 19:52:17 19:54:50 16° 89° (E) 19:57:31 437.425
CINEMA 3 28 Aug 19:52:52 19:55:36 16° 55° (NE) 19:58:32 145.822/145.860
SEEDS 28 Aug 20:01:08 20:04:04 19° 61° (ENE) 20:07:05 437.485
YUBILEINY 28 Aug 20:03:58 20:05:55 11° 67° (ENE) 20:08:29 435.215
BEESAT 3 28 Aug 20:08:48 20:11:08 14° 344° (NNW) 20:13:26 437.485
CUBEBUG 2 28 Aug 20:08:52 20:10:06 11° 52° (NE) 20:11:34 437.445
BEESAT 2 28 Aug 20:15:18 20:17:47 15° 342° (NNW) 20:20:14 435.950
DOVE 4 28 Aug 20:16:29 20:20:49 42° 67° (ENE) 20:25:28 437.250
CUTE-I 28 Aug 20:17:10 20:21:06 20° 272° (W) 20:24:55 437.470
RS-15 28 Aug 20:22:04 20:32:57 55° 331° (NNW) 20:44:21 29.354- 29.394
UWE-3 28 Aug 20:22:59 20:24:32 12° 53° (NE) 20:26:16 435.000/436.395/437.385
AIST 2 28 Aug 20:25:19 20:28:54 25° 330° (NNW) 20:32:28 435.215
COMPASS 1 28 Aug 20:28:23 20:31:51 26° 65° (ENE) 20:35:22 437.405
FUNcube-1 28 Aug 20:31:58 20:32:49 11° 53° (NE) 20:33:51 145.935
BRITE-PL 28 Aug 20:36:42 20:40:58 55° 261° (W) 20:45:36 437.365/2234.400
AAUSAT CUBESAT 2 28 Aug 20:41:35 20:45:12 29° 66° (ENE) 20:48:51 437.432
CUTE 1.7 + AOD 2 28 Aug 20:53:54 20:58:09 65° 73° (ENE) 21:02:26 437.475
CUBESAT XI-V 28 Aug 21:05:59 21:09:47 25° 297° (WNW) 21:13:32 437.345
CANX-2 28 Aug 21:07:18 21:11:37 85° 256° (WSW) 21:15:57 2200.000
STRAND 1 28 Aug 21:07:35 21:12:43 79° 287° (WNW) 21:17:49 437.568
HO-68 28 Aug 21:19:39 21:26:48 70° 256° (WSW) 21:34:01 435.675
Oscar 11 28 Aug 21:22:00 21:25:58 36° 67° (ENE) 21:29:59 145.826/435.025
O/OREOS (USA 219) 28 Aug 21:22:04 21:26:37 71° 300° (WNW) 21:31:13 437.305
AIST 1 28 Aug 21:23:03 21:26:40 26° 271° (W) 21:30:14
GOMX 1 28 Aug 21:23:55 21:28:02 34° 266° (W) 21:32:25 467.674
PRISM 28 Aug 21:26:38 21:30:42 60° 289° (WNW) 21:34:43 437.425
CINEMA 3 28 Aug 21:27:22 21:32:04 85° 78° (ENE) 21:37:01 145.822/145.860
DELFI C3 28 Aug 21:30:44 21:34:12 28° 66° (ENE) 21:37:44 145.870
SEEDS 28 Aug 21:35:15 21:39:28 61° 259° (W) 21:43:42 437.485
HUMSAT D 28 Aug 21:36:48 21:39:32 17° 59° (ENE) 21:42:22 437.325/437.525
Cosmos 2491 28 Aug 21:37:37 21:46:24 82° 262° (W) 21:55:09 435.465 / 435.565
CUBEBUG 2 28 Aug 21:41:19 21:45:53 59° 71° (ENE) 21:50:35 437.445
BEESAT 3 28 Aug 21:48:58 21:50:39 12° 7° (N) 21:52:21 437.485
VELOX 1 28 Aug 21:49:07 21:49:52 10° 53° (NE) 21:50:49 145.980
YUBILEINY 28 Aug 21:52:23 22:00:40 50° 89° (E) 22:09:06 435.215
DOVE 4 28 Aug 21:54:42 21:58:45 29° 268° (W) 22:02:58 437.250
UWE-3 28 Aug 21:55:39 22:00:13 64° 72° (ENE) 22:04:53 435.000/436.395/437.385
BEESAT 2 28 Aug 21:55:42 21:57:24 12° 6° (N) 21:59:07 435.950
ZACube-1 28 Aug 21:56:49 22:01:13 52° 70° (ENE) 22:05:44 437.345
COMPASS 1 28 Aug 22:03:21 22:07:21 40° 263° (W) 22:11:21 437.405
FUNcube-1 28 Aug 22:03:47 22:08:14 59° 72° (ENE) 22:12:48 145.935
AIST 2 28 Aug 22:06:49 22:08:50 13° 353° (N) 22:10:50 435.215
AAUSAT CUBESAT 2 28 Aug 22:16:52 22:20:43 34° 264° (W) 22:24:35 437.432
ESTCUBE 1 28 Aug 22:27:45 22:30:40 18° 59° (ENE) 22:33:42 437.505/2401.250
CUTE 1.7 + AOD 2 28 Aug 22:31:46 22:34:33 16° 272° (W) 22:37:12 437.475
50 SAT 28 Aug 22:34:13 22:37:25 24° 64° (ENE) 22:40:41 437.505
RS-15 28 Aug 22:37:39 22:48:15 41° 4° (N) 22:59:22 29.354- 29.394
DX 1 28 Aug 22:44:09 22:48:14 42° 68° (ENE) 22:52:23 434.975-435.025
CANX-2 28 Aug 22:47:00 22:48:18 11° 276° (W) 22:49:24 2200.000
STRAND 1 28 Aug 22:48:09 22:51:12 16° 306° (NW) 22:54:06 437.568
AISAT 28 Aug 22:52:25 22:56:25 35° 66° (ENE) 23:00:29 437.250
UNISAT 6 28 Aug 22:52:30 22:54:50 14° 85° (E) 22:57:20 437.425
Oscar 11 28 Aug 22:58:21 23:02:13 30° 266° (W) 23:06:03 145.826/435.025
UKube-1 28 Aug 23:02:04 23:06:17 57° 70° (ENE) 23:10:33 .
CUBEBUG 1 28 Aug 23:04:04 23:07:43 28° 64° (ENE) 23:11:28 437.445
O/OREOS (USA 219) 28 Aug 23:04:09 23:06:57 15° 323° (NW) 23:09:40 437.305
DELFI C3 28 Aug 23:05:30 23:09:12 33° 264° (W) 23:12:54 145.870
CINEMA 3 28 Aug 23:07:19 23:10:03 15° 276° (W) 23:12:40 145.822/145.860
HUMSAT D 28 Aug 23:10:27 23:14:47 73° 257° (WSW) 23:19:08 437.325/437.525
HO-68 28 Aug 23:11:51 23:16:03 15° 278° (W) 23:19:54 435.675
SPROUT 28 Aug 23:14:38 23:16:49 14° 57° (ENE) 23:19:09 437.525
CUBEBUG 2 28 Aug 23:19:27 23:22:59 21° 272° (W) 23:26:29 437.445
VELOX 1 28 Aug 23:21:16 23:25:36 61° 71° (ENE) 23:30:00 145.980
TIGRISAT 28 Aug 23:21:30 23:25:16 24° 91° (E) 23:29:03 435.000
QB50P2 28 Aug 23:26:26 23:27:29 11° 84° (E) 23:28:46 145.880/145.840
BEESAT 3 28 Aug 23:26:32 23:29:55 24° 31° (NNE) 23:33:16 437.485
NANOSAT C BR1 28 Aug 23:29:59 23:31:16 11° 84° (E) 23:32:46 145.865
BEESAT 2 28 Aug 23:33:30 23:36:49 23° 29° (NNE) 23:40:09 435.950
UWE-3 28 Aug 23:33:54 23:37:12 19° 272° (W) 23:40:27 435.000/436.395/437.385
ZACube-1 28 Aug 23:34:16 23:37:54 22° 270° (W) 23:41:28 437.345
Cosmos 2504 28 Aug 23:35:23 23:42:21 33° 82° (E) 23:49:46 435.465 / 435.565
Cosmos 2491 28 Aug 23:35:53 23:42:03 21° 284° (WNW) 23:47:52 435.465 / 435.565
ANTELSAT 28 Aug 23:36:52 23:41:06 34° 95° (E) 23:45:16 437.575/2403.000
AUBIESAT-1 28 Aug 23:40:40 23:43:44 20° 96° (E) 23:46:42 437.475
QB50P1 28 Aug 23:41:15 23:43:42 15° 87° (E) 23:46:18 145.935-145.965
FUNcube-1 28 Aug 23:41:34 23:44:58 20° 271° (W) 23:48:18 145.935
M-CUBED/EXP-1 PRIME 28 Aug 23:42:23 23:45:51 25° 97° (E) 23:49:08 437.505
AIST 2 28 Aug 23:46:27 23:49:01 16° 17° (NNE) 23:51:37 435.215
YUBILEINY 28 Aug 23:49:13 23:57:41 48° 293° (WNW) 00:06:09 435.215
ESTCUBE 1 29 Aug 00:02:35 00:07:05 74° 258° (WSW) 00:11:35 437.505/2401.250
50 SAT 29 Aug 00:08:03 00:11:47 38° 262° (W) 00:15:32 437.505
DX 1 29 Aug 00:21:03 00:24:40 25° 267° (W) 00:28:15 434.975-435.025
UNISAT 6 29 Aug 00:27:39 00:32:20 84° 286° (WNW) 00:36:54 437.425
AISAT 29 Aug 00:29:05 00:33:02 31° 265° (W) 00:36:59 437.250
TISAT 1 29 Aug 00:29:57 00:33:51 38° 68° (ENE) 00:37:49 437.305
UKube-1 29 Aug 00:39:41 00:42:48 19° 270° (W) 00:45:49 .
POLYITAN 1 29 Aug 00:39:46 00:44:02 53° 100° (E) 00:48:16 437.675
CUBEBUG 1 29 Aug 00:39:55 00:43:58 38° 263° (W) 00:48:03 437.445
POPSAT HIP 1 29 Aug 00:43:44 00:48:00 57° 100° (E) 00:52:15 437.405
DUCHIFAT 1 29 Aug 00:47:16 00:51:32 60° 101° (E) 00:55:47 145.980
SPROUT 29 Aug 00:48:00 00:52:18 90° 248° (WSW) 00:56:40 437.525
ITUPSAT 1 29 Aug 00:48:23 00:51:16 17° 56° (NE) 00:54:18 437.325
RS-15 29 Aug 00:51:50 01:03:20 62° 35° (NE) 01:15:22 29.354- 29.394
TIGRISAT 29 Aug 00:57:47 01:02:17 48° 291° (WNW) 01:06:39 435.000
VELOX 1 29 Aug 00:59:31 01:02:36 18° 271° (W) 01:05:34 145.980
QB50P2 29 Aug 00:59:48 01:04:09 85° 104° (ESE) 01:08:28 145.880/145.840
NANOSAT C BR1 29 Aug 01:03:31 01:07:51 88° 100° (E) 01:12:09 145.865
BEESAT 3 29 Aug 01:04:11 01:08:15 72° 232° (SW) 01:12:13 437.485
BUGSAT 1 29 Aug 01:09:38 01:13:52 66° 102° (ESE) 01:18:06 437.445
BEESAT 2 29 Aug 01:11:13 01:15:19 79° 232° (SW) 01:19:21 435.950
ANTELSAT 29 Aug 01:13:39 01:17:53 34° 295° (WNW) 01:21:59 437.575/2403.000
AUBIESAT-1 29 Aug 01:14:42 01:18:47 48° 297° (WNW) 01:22:31 437.475
QB50P1 29 Aug 01:15:47 01:20:06 71° 287° (WNW) 01:24:22 145.935-145.965
M-CUBED/EXP-1 PRIME 29 Aug 01:16:47 01:20:50 40° 299° (WNW) 01:24:32 437.505
BEESAT 29 Aug 01:22:17 01:26:22 30° 63° (ENE) 01:30:31 436.000
AIST 2 29 Aug 01:24:36 01:28:38 42° 40° (NE) 01:32:37 435.215
Cosmos 2504 29 Aug 01:25:52 01:34:01 69° 285° (WNW) 01:42:37 435.465 / 435.565
CUSAT 1 29 Aug 01:31:09 01:35:00 71° 98° (E) 01:40:14 437.405
DANDE 29 Aug 01:35:37 01:38:56 45° 94° (E) 01:43:20 436.750
SWISSCUBE 29 Aug 01:47:06 01:51:42 50° 68° (ENE) 01:56:19 437.505
KKS-1 29 Aug 01:51:54 01:53:35 12° 54° (NE) 01:55:26 437.445
YUBILEINY 29 Aug 01:53:00 01:57:30 14° 321° (NW) 02:01:38 435.215
UNISAT 6 29 Aug 02:05:50 02:08:26 15° 305° (NW) 02:10:51 437.425
TISAT 1 29 Aug 02:06:10 02:09:44 26° 267° (W) 02:13:18 437.305
Oscar 19 29 Aug 02:15:19 02:19:40 27° 92° (E) 02:24:05 437.125/150
POLYITAN 1 29 Aug 02:16:18 02:19:37 21° 299° (WNW) 02:22:52 437.675
SO-50 29 Aug 02:18:53 02:22:37 23° 115° (ESE) 02:26:31 436.795
POPSAT HIP 1 29 Aug 02:20:18 02:23:32 20° 299° (WNW) 02:26:39 437.405
ITUPSAT 1 29 Aug 02:23:46 02:28:33 89° 243° (WSW) 02:33:23 437.325
DUCHIFAT 1 29 Aug 02:23:50 02:26:57 19° 300° (WNW) 02:29:59 145.980
SPROUT 29 Aug 02:27:29 02:29:07 12° 276° (W) 02:30:33 437.525
Gurwin Techsat 1B 29 Aug 02:31:27 02:33:52 13° 83° (E) 02:36:32 435.225
QB50P2 29 Aug 02:37:00 02:39:29 15° 303° (WNW) 02:41:50 145.880/145.840
NANOSAT C BR1 29 Aug 02:40:43 02:43:06 14° 303° (WNW) 02:45:20 145.865
GONETS M04 29 Aug 02:41:11 02:47:48 26° 79° (E) 02:54:41
BEESAT 3 29 Aug 02:45:01 02:45:27 10° 250° (WSW) 02:45:42 437.485
BUGSAT 1 29 Aug 02:46:00 02:48:55 18° 300° (WNW) 02:51:44 437.445
BEESAT 2 29 Aug 02:51:16 02:52:42 11° 249° (WSW) 02:53:57 435.950
PCSat 29 Aug 02:52:13 02:56:29 25° 111° (ESE) 03:00:53 145.827
JAS-2 29 Aug 02:53:00 02:56:43 15° 76° (ENE) 03:00:35 435.910
QB50P1 29 Aug 02:53:46 02:55:13 11° 305° (NW) 02:56:32 145.935-145.965
BEESAT 29 Aug 02:59:31 03:04:04 43° 262° (W) 03:08:38 436.000
AIST 2 29 Aug 03:03:19 03:07:07 33° 240° (WSW) 03:10:50 435.215
RS-15 29 Aug 03:04:37 03:16:04 60° 241° (WSW) 03:27:51 29.354- 29.394
ITAMSAT 1 29 Aug 03:07:17 03:11:09 21° 90° (E) 03:15:09 435.822/435.867
STARS 29 Aug 03:14:57 03:19:01 37° 66° (ENE) 03:23:08 437.465
CUSAT 1 29 Aug 03:15:32 03:18:34 18° 309° (NW) 03:22:02 437.405
MOZHAYETS 4 29 Aug 03:16:56 03:19:04 13° 55° (NE) 03:21:23
DANDE 29 Aug 03:19:47 03:22:38 19° 305° (NW) 03:26:01 436.750
Cosmos 2504 29 Aug 03:22:13 03:28:14 20° 311° (NW) 03:34:07 435.465 / 435.565
KKS-1 29 Aug 03:25:02 03:29:28 71° 73° (ENE) 03:33:57 437.445
SWISSCUBE 29 Aug 03:25:53 03:29:50 25° 268° (W) 03:33:43 437.505
Cosmos 2499 29 Aug 03:49:38 03:55:03 20° 74° (ENE) 04:00:57 435.465 / 435.565
Oscar 19 29 Aug 03:54:16 03:59:21 52° 292° (WNW) 04:04:23 437.125/150
SO-50 29 Aug 03:57:54 04:02:45 71° 315° (NW) 04:07:45 436.795
ITUPSAT 1 29 Aug 04:04:49 04:07:15 13° 275° (W) 04:09:28 437.325
O/OREOS (USA 219) 29 Aug 04:09:19 04:12:15 17° 39° (NE) 04:15:15 437.305
Gurwin Techsat 1B 29 Aug 04:09:29 04:14:50 79° 104° (ESE) 04:20:10 435.225
AO-7 29 Aug 04:19:24 04:25:45 24° 88° (E) 04:32:19 29.400- 29.500
HORYU 2 29 Aug 04:23:35 04:25:57 14° 87° (E) 04:28:28 437.375
PCSat 29 Aug 04:34:06 04:39:30 69° 310° (NW) 04:44:58 145.827
GONETS M04 29 Aug 04:35:01 04:43:43 84° 280° (W) 04:52:32
JAS-2 29 Aug 04:36:07 04:43:32 68° 101° (E) 04:50:05 435.910
ITAMSAT 1 29 Aug 04:46:02 04:51:11 65° 289° (WNW) 04:56:19 435.822/435.867
MOZHAYETS 4 29 Aug 04:50:59 04:55:37 78° 74° (ENE) 05:00:14
STARS 29 Aug 04:51:37 04:55:32 29° 266° (W) 04:59:25 437.465
CUBESAT XI-V 29 Aug 05:01:42 05:04:02 14° 56° (NE) 05:06:32 437.345
KKS-1 29 Aug 05:03:51 05:06:40 16° 272° (W) 05:09:20 437.445
RS-15 29 Aug 05:19:25 05:26:17 17° 264° (W) 05:32:27 29.354- 29.394
Oscar 19 29 Aug 05:36:02 05:37:41 11° 311° (NW) 05:39:05 437.125/150
Cosmos 2499 29 Aug 05:38:22 05:46:48 74° 96° (E) 05:55:41 435.465 / 435.565
SO-50 29 Aug 05:40:07 05:44:08 24° 337° (NNW) 05:48:09 436.795
O/OREOS (USA 219) 29 Aug 05:47:52 05:52:30 78° 61° (ENE) 05:57:07 437.305
Gurwin Techsat 1B 29 Aug 05:50:23 05:54:18 21° 303° (WNW) 05:58:06 435.225
HORYU 2 29 Aug 05:58:43 06:03:13 79° 288° (WNW) 06:07:41 437.375
YUBILEINY 29 Aug 06:02:35 06:02:58 10° 30° (NNE) 06:03:46 435.215
AO-7 29 Aug 06:11:23 06:19:47 90° 293° (WNW) 06:28:05 29.400- 29.500
PCSat 29 Aug 06:19:39 06:23:55 22° 334° (NNW) 06:28:08 145.827
